STARLINK-37034

operational
NORAD ID: 70108 Constellation: starlink
LEOCIRCULAR

Über STARLINK-37034

Beschreibung wird geladen...

Live-Position

3D-Globus wird geladen...

Nächste Überflüge

Höhenverlauf

Altitude vs Time

uPlot chart will show altitude changes over time

Zweizeiliger Elementsatz

1 70108C 26050E 26073.73243056 .00564930 00000+0 74355-3 0 733
2 70108 53.1639 257.6157 0011460 268.1538 224.7937 16.05406642 12
Epoch: 14. März 2026 • Age: 48 hours